Spirit Of Baltimore — WDE9403 — position and weather

sailwx.info

Track history (hours):
 
Tides and Currents Weather Stations Pressure Air Temp Water Temp Dewpoint Dewpoint Depression Visibility Wind Speed Wind Dir Waves Ship Positions

Spirit Of Baltimore

Owner: Spirit Cruises, LLC, Baltimore, MD. More information available from US FCC via Universal Licensing System and Coast Guard Vessel Documentation Center.

Last reported at 2017-Oct-20 01:59 UTC. Time now 2017-Oct-20 16:19 UTC.
Position N 39°17' W 076°37'.

Length 40 m.

Type: Passenger vessel. MMSI: 367416810.

Date/timePositionNaut miles runAvg speedWind from/ knotsBaromVisibWave heightAir tempDewpointWater temp
2017-Oct-20 01:59N 39°17' W 076°37'0 0.6
2017-Oct-20 01:30N 39°17' W 076°36'0 0.0
2017-Oct-20 01:00N 39°17' W 076°36'0 0.0
2017-Oct-20 00:30N 39°17' W 076°36'0 0.0
2017-Oct-20 00:00N 39°17' W 076°36'0 0.0
2017-Oct-19 23:30N 39°17' W 076°36'0 0.0
2017-Oct-19 23:00N 39°17' W 076°36'0 0.0
2017-Oct-19 22:30N 39°17' W 076°36'0 0.0
2017-Oct-19 22:00N 39°17' W 076°36'0 0.0
2017-Oct-19 21:30N 39°17' W 076°36'0 0.5
2017-Oct-19 21:00N 39°17' W 076°37'0 0.0
2017-Oct-19 20:30N 39°17' W 076°37'  
2017-Oct-16 00:16N 39°17' W 076°37'0 0.0
2017-Oct-16 00:00N 39°17' W 076°37'0 0.0
2017-Oct-15 23:30N 39°17' W 076°37'1 2.6
2017-Oct-15 23:00N 39°17' W 076°35'3 6.0
2017-Oct-15 22:30N 39°14' W 076°33'0 0.8
2017-Oct-15 22:00N 39°14' W 076°32'3 6.3
2017-Oct-15 21:30N 39°16' W 076°35'2 2.9
2017-Oct-15 20:56N 39°17' W 076°37'0 0.0
2017-Oct-15 20:27N 39°17' W 076°37'0 0.1
2017-Oct-15 19:59N 39°17' W 076°37'0 0.0
2017-Oct-15 19:27N 39°17' W 076°37'0 0.0
2017-Oct-15 19:00N 39°17' W 076°37'0 0.0
2017-Oct-15 18:30N 39°17' W 076°37'0 0.3
2017-Oct-15 18:01N 39°17' W 076°37'3 6.5
2017-Oct-15 17:30N 39°15' W 076°33'1 2.4
2017-Oct-15 16:59N 39°14' W 076°32'3 6.8
2017-Oct-15 16:30N 39°16' W 076°35'2 3.0
2017-Oct-15 16:00N 39°17' W 076°37'0 0.1
2017-Oct-15 15:25N 39°17' W 076°37'0 0.0
2017-Oct-15 14:58N 39°17' W 076°37'0 0.0
2017-Oct-15 13:46N 39°17' W 076°37'0 0.0
2017-Oct-15 13:25N 39°17' W 076°37'0 0.0
2017-Oct-15 12:57N 39°17' W 076°37'0 0.0
2017-Oct-15 12:30N 39°17' W 076°37'0 0.0
2017-Oct-15 11:51N 39°17' W 076°37'0 0.0
2017-Oct-15 11:27N 39°17' W 076°37'0 0.0
2017-Oct-15 11:00N 39°17' W 076°37'0 0.0
2017-Oct-15 10:30N 39°17' W 076°37'0 0.0
2017-Oct-15 10:00N 39°17' W 076°37'0 0.0
2017-Oct-15 09:27N 39°17' W 076°37'0 0.0
2017-Oct-15 09:00N 39°17' W 076°37'0 0.0
2017-Oct-15 08:30N 39°17' W 076°37'0 0.0
2017-Oct-15 08:00N 39°17' W 076°37'0 0.0
2017-Oct-15 07:27N 39°17' W 076°37'0 0.0
2017-Oct-15 07:00N 39°17' W 076°37'0 0.0
2017-Oct-15 06:30N 39°17' W 076°37'0 0.0
2017-Oct-15 06:00N 39°17' W 076°37'1 2.1
2017-Oct-15 05:30N 39°17' W 076°35'1 2.8
2017-Oct-15 05:01N 39°16' W 076°34'2 3.0
2017-Oct-15 04:30N 39°17' W 076°36'1 1.6
2017-Oct-15 03:58N 39°17' W 076°37'0 0.0
2017-Oct-15 03:28N 39°17' W 076°37'0 0.0
2017-Oct-15 02:58N 39°17' W 076°37'0 0.1
2017-Oct-15 02:28N 39°17' W 076°37'0 0.1
2017-Oct-15 02:00N 39°17' W 076°37'2 3.1
2017-Oct-15 01:30N 39°16' W 076°35'1 1.9
2017-Oct-15 01:01N 39°16' W 076°36'2 4.8
2017-Oct-15 00:31N 39°15' W 076°33'2 3.7
2017-Oct-15 00:00N 39°13' W 076°32'3 6.8
2017-Oct-14 23:30N 39°16' W 076°35'2 3.9
2017-Oct-14 23:00N 39°17' W 076°37'0 0.0
2017-Oct-14 22:30N 39°17' W 076°37'0 0.0
2017-Oct-14 22:00N 39°17' W 076°37'0 0.1
2017-Oct-14 21:30N 39°17' W 076°37'0 0.1
2017-Oct-14 21:00N 39°17' W 076°37'0 0.0
2017-Oct-14 20:30N 39°17' W 076°37'0 0.0
2017-Oct-14 20:00N 39°17' W 076°37'0 0.0
2017-Oct-14 19:30N 39°17' W 076°37'0 0.1
2017-Oct-14 19:00N 39°17' W 076°37'0 0.1
2017-Oct-14 18:30N 39°17' W 076°37'0 0.0
2017-Oct-14 18:00N 39°17' W 076°37'2 4.6
2017-Oct-14 17:30N 39°16' W 076°34'3 5.9
2017-Oct-14 17:01N 39°13' W 076°32'3 6.5
2017-Oct-14 16:30N 39°16' W 076°35'2 4.0
2017-Oct-14 16:00N 39°17' W 076°37'0 0.0
2017-Oct-14 15:30N 39°17' W 076°37'0 0.0
2017-Oct-14 15:00N 39°17' W 076°37'0 0.0
2017-Oct-14 14:30N 39°17' W 076°37'0 0.0
2017-Oct-14 14:00N 39°17' W 076°37'0 0.0
2017-Oct-14 13:30N 39°17' W 076°37'0 0.0
2017-Oct-14 12:58N 39°17' W 076°37'0 0.0
2017-Oct-14 12:28N 39°17' W 076°37'0 0.0
2017-Oct-14 11:58N 39°17' W 076°37'0 0.0
2017-Oct-14 11:28N 39°17' W 076°37'0 0.0
2017-Oct-14 10:58N 39°17' W 076°37'0 0.0
2017-Oct-14 10:28N 39°17' W 076°37'0 0.0
2017-Oct-14 09:58N 39°17' W 076°37'0 0.0
2017-Oct-14 09:28N 39°17' W 076°37'0 0.0
2017-Oct-14 08:55N 39°17' W 076°37'0 0.0
2017-Oct-14 08:28N 39°17' W 076°37'0 0.0
2017-Oct-14 07:58N 39°17' W 076°37'0 0.0
2017-Oct-14 07:28N 39°17' W 076°37'0 0.0
2017-Oct-14 06:55N 39°17' W 076°37'0 0.0
2017-Oct-14 06:28N 39°17' W 076°37'0 0.0
2017-Oct-14 05:58N 39°17' W 076°37'0 0.0
2017-Oct-14 05:28N 39°17' W 076°37'0 0.0
2017-Oct-14 04:58N 39°17' W 076°37'0 0.0
2017-Oct-14 04:28N 39°17' W 076°37'0 0.0
2017-Oct-14 03:58N 39°17' W 076°37'0 0.0
2017-Oct-14 03:28N 39°17' W 076°37'0 0.0
2017-Oct-14 02:58N 39°17' W 076°37'0 0.0
2017-Oct-14 02:28N 39°17' W 076°37'0 0.0
2017-Oct-14 02:00N 39°17' W 076°37'2 2.4
2017-Oct-14 01:23N 39°16' W 076°35'2 3.8
2017-Oct-14 00:53N 39°15' W 076°33'2 4.9
2017-Oct-14 00:24N 39°13' W 076°32'2 4.5
2017-Oct-13 23:55N 39°15' W 076°33'3 5.4
2017-Oct-13 23:27N 39°17' W 076°35'1 2.3
2017-Oct-13 23:00N 39°17' W 076°37'0 0.0
2017-Oct-13 22:30N 39°17' W 076°37'0 0.0
2017-Oct-13 22:00N 39°17' W 076°37'0 0.1
2017-Oct-13 21:30N 39°17' W 076°37'0 0.1
2017-Oct-13 21:00N 39°17' W 076°37'0 0.0
2017-Oct-13 20:30N 39°17' W 076°37'0 0.0
2017-Oct-13 20:00N 39°17' W 076°37'0 0.0
2017-Oct-13 19:30N 39°17' W 076°37'0 0.0
2017-Oct-13 19:00N 39°17' W 076°37'0 0.0
2017-Oct-13 18:30N 39°17' W 076°37'0 0.0
2017-Oct-13 18:00N 39°17' W 076°37'3 5.3
2017-Oct-13 17:30N 39°15' W 076°34'3 5.3
2017-Oct-13 17:00N 39°13' W 076°32'3 6.3
2017-Oct-13 16:31N 39°16' W 076°34'2 4.0
2017-Oct-13 15:58N 39°17' W 076°37'0 0.0
2017-Oct-13 15:28N 39°17' W 076°37'0 0.0
2017-Oct-13 14:58N 39°17' W 076°37'0 0.0
2017-Oct-13 14:28N 39°17' W 076°37'0 0.0
2017-Oct-13 13:58N 39°17' W 076°37'0 0.0
2017-Oct-13 13:28N 39°17' W 076°37'0 0.0
2017-Oct-13 12:58N 39°17' W 076°37'0 0.0
2017-Oct-12 01:57N 39°17' W 076°37'0 0.0
2017-Oct-12 01:30N 39°17' W 076°37'2 3.1
2017-Oct-12 01:00N 39°16' W 076°35'2 4.8
2017-Oct-12 00:30N 39°14' W 076°33'1 2.2
2017-Oct-12 00:00N 39°14' W 076°32'3 6.0
2017-Oct-11 23:30N 39°16' W 076°35'2 4.0
2017-Oct-11 23:00N 39°17' W 076°37'0 0.0
2017-Oct-11 22:30N 39°17' W 076°37'0 0.0
2017-Oct-11 22:00N 39°17' W 076°37'0 0.0
2017-Oct-11 21:30N 39°17' W 076°37'0 0.0
2017-Oct-11 21:00N 39°17' W 076°37'0 0.0
2017-Oct-11 20:30N 39°17' W 076°37'0 0.0
2017-Oct-11 20:00N 39°17' W 076°37'0 0.0
2017-Oct-10 18:14N 39°17' W 076°37'0 0.1
2017-Oct-10 18:00N 39°17' W 076°37'3 5.1
2017-Oct-10 17:30N 39°15' W 076°34'3 6.2
2017-Oct-10 17:00N 39°13' W 076°32'3 6.7
2017-Oct-10 16:31N 39°16' W 076°34'2 4.7
2017-Oct-10 16:00N 39°17' W 076°37'0 0.0
2017-Oct-10 15:30N 39°17' W 076°37'  
Track history (hours):
 
Tides and Currents Weather Stations Pressure Air Temp Water Temp Dewpoint Dewpoint Depression Visibility Wind Speed Wind Dir Waves Ship Positions

Spirit Of Baltimore

Owner: Spirit Cruises, LLC, Baltimore, MD. More information available from US FCC via Universal Licensing System and Coast Guard Vessel Documentation Center.

Last reported at 2017-Oct-20 01:59 UTC. Time now 2017-Oct-20 16:19 UTC.
Position N 39°17' W 076°37'.

Length 40 m.

Type: Passenger vessel. MMSI: 367416810.

Date/timePositionNaut miles runAvg speedWind from/ knotsBaromVisibWave heightAir tempDewpointWater temp
2017-Oct-20 01:59N 39°17' W 076°37'0 0.6
2017-Oct-20 01:30N 39°17' W 076°36'0 0.0
2017-Oct-20 01:00N 39°17' W 076°36'0 0.0
2017-Oct-20 00:30N 39°17' W 076°36'0 0.0
2017-Oct-20 00:00N 39°17' W 076°36'0 0.0
2017-Oct-19 23:30N 39°17' W 076°36'0 0.0
2017-Oct-19 23:00N 39°17' W 076°36'0 0.0
2017-Oct-19 22:30N 39°17' W 076°36'0 0.0
2017-Oct-19 22:00N 39°17' W 076°36'0 0.0
2017-Oct-19 21:30N 39°17' W 076°36'0 0.5
2017-Oct-19 21:00N 39°17' W 076°37'0 0.0
2017-Oct-19 20:30N 39°17' W 076°37'  
2017-Oct-16 00:16N 39°17' W 076°37'0 0.0
2017-Oct-16 00:00N 39°17' W 076°37'0 0.0
2017-Oct-15 23:30N 39°17' W 076°37'1 2.6
2017-Oct-15 23:00N 39°17' W 076°35'3 6.0
2017-Oct-15 22:30N 39°14' W 076°33'0 0.8
2017-Oct-15 22:00N 39°14' W 076°32'3 6.3
2017-Oct-15 21:30N 39°16' W 076°35'2 2.9
2017-Oct-15 20:56N 39°17' W 076°37'0 0.0
2017-Oct-15 20:27N 39°17' W 076°37'0 0.1
2017-Oct-15 19:59N 39°17' W 076°37'0 0.0
2017-Oct-15 19:27N 39°17' W 076°37'0 0.0
2017-Oct-15 19:00N 39°17' W 076°37'0 0.0
2017-Oct-15 18:30N 39°17' W 076°37'0 0.3
2017-Oct-15 18:01N 39°17' W 076°37'3 6.5
2017-Oct-15 17:30N 39°15' W 076°33'1 2.4
2017-Oct-15 16:59N 39°14' W 076°32'3 6.8
2017-Oct-15 16:30N 39°16' W 076°35'2 3.0
2017-Oct-15 16:00N 39°17' W 076°37'0 0.1
2017-Oct-15 15:25N 39°17' W 076°37'0 0.0
2017-Oct-15 14:58N 39°17' W 076°37'0 0.0
2017-Oct-15 13:46N 39°17' W 076°37'0 0.0
2017-Oct-15 13:25N 39°17' W 076°37'0 0.0
2017-Oct-15 12:57N 39°17' W 076°37'0 0.0
2017-Oct-15 12:30N 39°17' W 076°37'0 0.0
2017-Oct-15 11:51N 39°17' W 076°37'0 0.0
2017-Oct-15 11:27N 39°17' W 076°37'0 0.0
2017-Oct-15 11:00N 39°17' W 076°37'0 0.0
2017-Oct-15 10:30N 39°17' W 076°37'0 0.0
2017-Oct-15 10:00N 39°17' W 076°37'0 0.0
2017-Oct-15 09:27N 39°17' W 076°37'0 0.0
2017-Oct-15 09:00N 39°17' W 076°37'0 0.0
2017-Oct-15 08:30N 39°17' W 076°37'0 0.0
2017-Oct-15 08:00N 39°17' W 076°37'0 0.0
2017-Oct-15 07:27N 39°17' W 076°37'0 0.0
2017-Oct-15 07:00N 39°17' W 076°37'0 0.0
2017-Oct-15 06:30N 39°17' W 076°37'0 0.0
2017-Oct-15 06:00N 39°17' W 076°37'1 2.1
2017-Oct-15 05:30N 39°17' W 076°35'1 2.8
2017-Oct-15 05:01N 39°16' W 076°34'2 3.0
2017-Oct-15 04:30N 39°17' W 076°36'1 1.6
2017-Oct-15 03:58N 39°17' W 076°37'0 0.0
2017-Oct-15 03:28N 39°17' W 076°37'0 0.0
2017-Oct-15 02:58N 39°17' W 076°37'0 0.1
2017-Oct-15 02:28N 39°17' W 076°37'0 0.1
2017-Oct-15 02:00N 39°17' W 076°37'2 3.1
2017-Oct-15 01:30N 39°16' W 076°35'1 1.9
2017-Oct-15 01:01N 39°16' W 076°36'2 4.8
2017-Oct-15 00:31N 39°15' W 076°33'2 3.7
2017-Oct-15 00:00N 39°13' W 076°32'3 6.8
2017-Oct-14 23:30N 39°16' W 076°35'2 3.9
2017-Oct-14 23:00N 39°17' W 076°37'0 0.0
2017-Oct-14 22:30N 39°17' W 076°37'0 0.0
2017-Oct-14 22:00N 39°17' W 076°37'0 0.1
2017-Oct-14 21:30N 39°17' W 076°37'0 0.1
2017-Oct-14 21:00N 39°17' W 076°37'0 0.0
2017-Oct-14 20:30N 39°17' W 076°37'0 0.0
2017-Oct-14 20:00N 39°17' W 076°37'0 0.0
2017-Oct-14 19:30N 39°17' W 076°37'0 0.1
2017-Oct-14 19:00N 39°17' W 076°37'0 0.1
2017-Oct-14 18:30N 39°17' W 076°37'0 0.0
2017-Oct-14 18:00N 39°17' W 076°37'2 4.6
2017-Oct-14 17:30N 39°16' W 076°34'3 5.9
2017-Oct-14 17:01N 39°13' W 076°32'3 6.5
2017-Oct-14 16:30N 39°16' W 076°35'2 4.0
2017-Oct-14 16:00N 39°17' W 076°37'0 0.0
2017-Oct-14 15:30N 39°17' W 076°37'0 0.0
2017-Oct-14 15:00N 39°17' W 076°37'0 0.0
2017-Oct-14 14:30N 39°17' W 076°37'0 0.0
2017-Oct-14 14:00N 39°17' W 076°37'0 0.0
2017-Oct-14 13:30N 39°17' W 076°37'0 0.0
2017-Oct-14 12:58N 39°17' W 076°37'0 0.0
2017-Oct-14 12:28N 39°17' W 076°37'0 0.0
2017-Oct-14 11:58N 39°17' W 076°37'0 0.0
2017-Oct-14 11:28N 39°17' W 076°37'0 0.0
2017-Oct-14 10:58N 39°17' W 076°37'0 0.0
2017-Oct-14 10:28N 39°17' W 076°37'0 0.0
2017-Oct-14 09:58N 39°17' W 076°37'0 0.0
2017-Oct-14 09:28N 39°17' W 076°37'0 0.0
2017-Oct-14 08:55N 39°17' W 076°37'0 0.0
2017-Oct-14 08:28N 39°17' W 076°37'0 0.0
2017-Oct-14 07:58N 39°17' W 076°37'0 0.0
2017-Oct-14 07:28N 39°17' W 076°37'0 0.0
2017-Oct-14 06:55N 39°17' W 076°37'0 0.0
2017-Oct-14 06:28N 39°17' W 076°37'0 0.0
2017-Oct-14 05:58N 39°17' W 076°37'0 0.0
2017-Oct-14 05:28N 39°17' W 076°37'0 0.0
2017-Oct-14 04:58N 39°17' W 076°37'0 0.0
2017-Oct-14 04:28N 39°17' W 076°37'0 0.0
2017-Oct-14 03:58N 39°17' W 076°37'0 0.0
2017-Oct-14 03:28N 39°17' W 076°37'0 0.0
2017-Oct-14 02:58N 39°17' W 076°37'0 0.0
2017-Oct-14 02:28N 39°17' W 076°37'0 0.0
2017-Oct-14 02:00N 39°17' W 076°37'2 2.4
2017-Oct-14 01:23N 39°16' W 076°35'2 3.8
2017-Oct-14 00:53N 39°15' W 076°33'2 4.9
2017-Oct-14 00:24N 39°13' W 076°32'2 4.5
2017-Oct-13 23:55N 39°15' W 076°33'3 5.4
2017-Oct-13 23:27N 39°17' W 076°35'1 2.3
2017-Oct-13 23:00N 39°17' W 076°37'0 0.0
2017-Oct-13 22:30N 39°17' W 076°37'0 0.0
2017-Oct-13 22:00N 39°17' W 076°37'0 0.1
2017-Oct-13 21:30N 39°17' W 076°37'0 0.1
2017-Oct-13 21:00N 39°17' W 076°37'0 0.0
2017-Oct-13 20:30N 39°17' W 076°37'0 0.0
2017-Oct-13 20:00N 39°17' W 076°37'0 0.0
2017-Oct-13 19:30N 39°17' W 076°37'0 0.0
2017-Oct-13 19:00N 39°17' W 076°37'0 0.0
2017-Oct-13 18:30N 39°17' W 076°37'0 0.0
2017-Oct-13 18:00N 39°17' W 076°37'3 5.3
2017-Oct-13 17:30N 39°15' W 076°34'3 5.3
2017-Oct-13 17:00N 39°13' W 076°32'3 6.3
2017-Oct-13 16:31N 39°16' W 076°34'2 4.0
2017-Oct-13 15:58N 39°17' W 076°37'0 0.0
2017-Oct-13 15:28N 39°17' W 076°37'0 0.0
2017-Oct-13 14:58N 39°17' W 076°37'0 0.0
2017-Oct-13 14:28N 39°17' W 076°37'0 0.0
2017-Oct-13 13:58N 39°17' W 076°37'0 0.0
2017-Oct-13 13:28N 39°17' W 076°37'0 0.0
2017-Oct-13 12:58N 39°17' W 076°37'0 0.0
2017-Oct-12 01:57N 39°17' W 076°37'0 0.0
2017-Oct-12 01:30N 39°17' W 076°37'2 3.1
2017-Oct-12 01:00N 39°16' W 076°35'2 4.8
2017-Oct-12 00:30N 39°14' W 076°33'1 2.2
2017-Oct-12 00:00N 39°14' W 076°32'3 6.0
2017-Oct-11 23:30N 39°16' W 076°35'2 4.0
2017-Oct-11 23:00N 39°17' W 076°37'0 0.0
2017-Oct-11 22:30N 39°17' W 076°37'0 0.0
2017-Oct-11 22:00N 39°17' W 076°37'0 0.0
2017-Oct-11 21:30N 39°17' W 076°37'0 0.0
2017-Oct-11 21:00N 39°17' W 076°37'0 0.0
2017-Oct-11 20:30N 39°17' W 076°37'0 0.0
2017-Oct-11 20:00N 39°17' W 076°37'0 0.0
2017-Oct-10 18:14N 39°17' W 076°37'0 0.1
2017-Oct-10 18:00N 39°17' W 076°37'3 5.1
2017-Oct-10 17:30N 39°15' W 076°34'3 6.2
2017-Oct-10 17:00N 39°13' W 076°32'3 6.7
2017-Oct-10 16:31N 39°16' W 076°34'2 4.7
2017-Oct-10 16:00N 39°17' W 076°37'0 0.0
2017-Oct-10 15:30N 39°17' W 076°37'  

Dump ship's entire track history